Weather in Novogeorgiyevka

Russia / Kemerovo Oblast     54°41′47″N   86°19′24″E
temp.,
°C
wind,
m/s
gust,
m/s
humid.,
%
clouds,
%
prec.,
mm/h
press.,
hPa
HPBL,
m
4 july, mon
mon401:00+12sw22925 1.4 100711
04:00+10s22945 0.0 100727
07:00+13s23925 0.0 1008120
10:00+17sse22785 0.0 1007627
13:00+20ssw22623 0.0 10061252
16:00+21ene11575 0.1 10051314
19:00+21ene22710 0.1 1005895
22:00+15ene22825 0.0 100412
5 july, tue
tue501:00+13ene228629 0.0 100318
04:00+12ene22875 0.0 100218
07:00+14ene24835 0.0 1000122
10:00+19ene236955 0.0 999358
13:00+23e3460100 0.0 998790
16:00+25ese2355100 0.0 997963
19:00+24sse1268100 0.0 996458
22:00+16ssw51393100 3.1 998377
6 july, wed
wed601:00+14sse5895100 4.0 1000245
04:00+14sse479886 0.9 1000191
07:00+14sse5109463 1.0 1001374
10:00+18sw697747 0.0 1002998
13:00+18ssw71081100 0.6 1003854
16:00+18sw6884100 1.8 10031157
19:00+17ssw578857 3.2 1004770
22:00+14s389794 1.1 1005219
7 july, thu
thu701:00+13sse3897100 1.3 1006213
04:00+14se3698100 0.1 1005228
07:00+14e3598100 0.2 1006266
10:00+15ese1295100 0.2 1007272
13:00+19wnw227990 0.8 1007766
16:00+17nnw6792100 2.3 1008511
19:00+14n51091100 2.6 1010577
22:00+12nw3594100 0.0 1010147
8 july, fri
fri801:00+13wnw2495100 0.3 1010132
04:00+12wsw3693100 0.3 1010189
07:00+13wnw2694100 0.3 1010257
10:00+16n249199 0.0 1010434
13:00+18nne338097 0.1 1009747
16:00+20nne457454 0.1 10091084
19:00+19nne36795 0.3 1008853
22:00+15ne22917 0.2 100811